Flag Weather past 2 weeks in Newport (Isle of Wight), England, United Kingdom

Now
36 °F

Chilly.


Feels Like: 29 °F
Forecast: 40 / 47 °F
Wind: 8 mph from North

Location: Solent M. R. S. C.

Current Time: Nov 24, 2014 at 5:27:34 AM

Latest Report: Nov 24, 2014 at 4:00 AM


Visibility: N/A

Pressure: 30.25 "Hg

Humidity: 97%

Dew point: 35 °F

Location of Newport (Isle of Wight)Location

Historic Weather in Newport (Isle of Wight) — Graph

°F

Newport (Isle of Wight) temperature yesterday

Maximum temperature yesterday: 55 °F (at 12:00 AM)
Minimum temperature yesterday: 40 °F (at 11:00 PM)
Average temperature yesterday: 48 °F

Past Weeks' High & Low Weather Summary

 TemperatureHumidityPressure
High58 °F (Nov 14, 3:00 AM)100% (Nov 22, 7:00 AM)30.25 "Hg (Nov 22, 7:00 AM)
Low36 °F (Nov 24, 4:00 AM)69% (Nov 18, 3:00 PM)29.38 "Hg (Nov 14, 6:00 AM)
Average51 °F92%29.80 "Hg
* Reported Nov 13 9:00 PM — Nov 24 4:00 AM, Newport (Isle of Wight), Weather by CustomWeather, © 2014

Note: Actual official high and low records may vary slightly from our data, if they occured in-between our weather recording intervals... More about our weather records

Advertising

Newport (Isle of Wight) weather history for previous 24 hours

 ConditionsComfort  
Time TempWeatherWind HumidityBarometerVisibility
4:00 AM
Nov 24
36 °FChilly.8 mph97%30.25 "HgN/A
3:00 AM37 °FChilly.6 mph96%30.25 "HgN/A
2:00 AM39 °FChilly.7 mph97%30.24 "HgN/A
1:00 AM40 °FChilly.6 mph98%30.22 "HgN/A
12:00 AM40 °FChilly.5 mph98%30.21 "HgN/A
11:00 PM
Nov 23
40 °FQuite cool.5 mph97%30.19 "HgN/A
10:00 PM42 °FQuite cool.6 mph97%30.17 "HgN/A
7:00 PM46 °FCool.6 mph97%30.12 "HgN/A
6:00 PM46 °FCool.3 mph97%30.10 "HgN/A
5:00 PM46 °FCool.6 mph97%30.08 "HgN/A
4:00 PM46 °FCool.7 mph97%30.06 "HgN/A
3:00 PM46 °FCool.10 mph97%30.04 "HgN/A
2:00 PM46 °FCool.13 mph97%30.03 "HgN/A
1:00 PM47 °FCool.14 mph97%30.01 "HgN/A
12:00 PM47 °FCool.12 mph98%30.02 "HgN/A
11:00 AM47 °FCool.9 mph97%30.04 "HgN/A
10:00 AM48 °FCool.10 mph98%30.03 "HgN/A
9:00 AM48 °FCool.14 mph97%30.01 "HgN/A
8:00 AM48 °FCool.14 mph97%30.00 "HgN/A
7:00 AM49 °FCool.9 mph97%29.99 "HgN/A
6:00 AM49 °FCool.16 mph98%29.98 "HgN/A
5:00 AM50 °FCool.10 mph99%29.98 "HgN/A
Weather by CustomWeather, © 2014

See weather overviewHow to use our weather pages